Погода в Корбе

Тунис     36°34′24″N   10°51′31″E
темп.,
°C
ветер,
м/с
пор.,
м/с
влажн.,
%
обл.,
%
осадки,
мм/ч
давл.,
гПа
погр.,
м
22 сентября, ср
ср2201:00+24ссв128842 0.0 101870
04:00+23ссз228810 0.0 101858
07:00+25вюв478532 0.0 1016360
10:00+27юв547051 0.0 1018823
13:00+28вюв5468100 0.0 1016800
16:00+27вюв447499 0.1 1016723
19:00+25вюв3484100 0.1 1016276
22:00+24всв348843 0.0 1017152
23 сентября, чт
чт2301:00+23всв469225 0.0 1017217
04:00+23в349097 0.0 1017151
07:00+24всв348712 0.1 1018295
10:00+26в4370100 0.0 1019800
13:00+27вюв4362100 0.0 1018712
16:00+26юв5470100 0.0 1018722
19:00+25вюв458293 0.0 1018415
22:00+24ююв5786100 0.0 1019369
24 сентября, пт
пт2401:00+25ююв6888100 0.0 1019402
04:00+24ю6988100 0.0 1018429
07:00+25ю798699 0.0 1018666
10:00+27ю9107392 0.0 1019708
13:00+28ююв9106999 0.0 1018639
16:00+27ююв910755 0.0 1017378
19:00+25ююв9148718 0.0 1017316
22:00+25ю9138855 0.0 1018401
25 сентября, сб
сб2501:00+25ю91287100 0.0 1018486
04:00+24ю811895 0.0 1017380
07:00+25ю812870 0.0 1017457
10:00+27ю810720 0.0 1018520
13:00+29ююв77658 0.0 1017480
16:00+28юв67735 0.0 1017354
19:00+25ююв58875 0.0 1018258
22:00+25ююв59895 0.0 1019287
26 сентября, вс
вс2601:00+25ю68895 0.0 1019230
04:00+24ю688828 0.0 1018199
07:00+25ю5884100 0.0 1018290
10:00+27ююв7868100 0.0 1019474
13:00+28ююв786367 0.0 1019517
16:00+27юв7767100 0.0 1017352
19:00+25ююв7118214 0.0 1017262
22:00+25ююв578098 0.0 1018144